When you browse on this site, cookies collect data to enhance your experience and personalize the content and advertising you see.
Visit our Privacy Policy to learn more. By continuing to use the site, you agree to this use of cookies and data.
  • In United Kingdom
  • List of Countries
  • For 7 days
  • Water Temperature
  • Weather Map
  • Weather Widgets
  • user-avatar
    Login

    Hourly Weather Kormend

    Today, 15 September, Sunday

    Time Temperature Precipitation Wind Pressure Humidity
    00:00 +15°C° 0 mm 2 mps 755 mmHg 61%
    01:00 +15°C° 0 mm 1 mps 755 mmHg 63%
    02:00 +14°C° 0 mm 1 mps 754 mmHg 64%
    03:00 +13°C° 0 mm 0 mps 754 mmHg 65%
    04:00 +12°C° 0 mm 0 mps 753 mmHg 67%
    05:00 +13°C° 0 mm 0 mps 754 mmHg 65%
    06:00 +14°C° 0 mm 0 mps 754 mmHg 63%
    07:00 +14°C° 0 mm 0 mps 754 mmHg 61%
    08:00 +18°C° 0 mm 1 mps 753 mmHg 56%
    09:00 +20°C° 0 mm 2 mps 753 mmHg 51%
    10:00 +23°C° 0 mm 2 mps 753 mmHg 47%
    11:00 +24°C° 0 mm 3 mps 752 mmHg 46%
    12:00 +25°C° 0 mm 3 mps 752 mmHg 46%
    13:00 +26°C° 0 mm 3 mps 752 mmHg 45%
    14:00 +26°C° 0 mm 3 mps 751 mmHg 46%
    15:00 +27°C° 0 mm 3 mps 750 mmHg 48%
    16:00 +27°C° 0 mm 3 mps 750 mmHg 49%
    17:00 +25°C° 0 mm 3 mps 750 mmHg 57%
    18:00 +21°C° 0 mm 2 mps 749 mmHg 64%
    19:00 +19°C° 0 mm 2 mps 749 mmHg 72%
    20:00 +19°C° 0 mm 2 mps 749 mmHg 75%
    21:00 +18°C° 0 mm 2 mps 749 mmHg 77%
    22:00 +17°C° 0 mm 2 mps 749 mmHg 79%
    23:00 +18°C° 0 mm 1 mps 749 mmHg 82%

    Tomorrow, 16 September, Monday

    Time Temperature Precipitation Wind Pressure Humidity
    00:00 +18°C° 0 mm 1 mps 749 mmHg 84%
    01:00 +16°C° 0 mm 1 mps 748 mmHg 86%
    02:00 +16°C° 0 mm 1 mps 748 mmHg 87%
    03:00 +16°C° 0 mm 1 mps 748 mmHg 88%
    04:00 +16°C° 0 mm 1 mps 748 mmHg 90%
    05:00 +18°C° 0 mm 1 mps 748 mmHg 87%
    06:00 +17°C° 0 mm 0 mps 748 mmHg 84%
    07:00 +17°C° 0 mm 0 mps 747 mmHg 81%
    08:00 +22°C° 0 mm 1 mps 748 mmHg 73%
    09:00 +24°C° 0 mm 1 mps 748 mmHg 65%
    10:00 +26°C° 0 mm 1 mps 748 mmHg 57%
    11:00 +27°C° 0 mm 1 mps 747 mmHg 54%
    12:00 +28°C° 0 mm 1 mps 747 mmHg 50%
    13:00 +29°C° 0 mm 2 mps 746 mmHg 46%
    14:00 +29°C° 0 mm 2 mps 746 mmHg 46%
    15:00 +29°C° 0 mm 2 mps 745 mmHg 45%
    16:00 +29°C° 0 mm 2 mps 745 mmHg 45%
    17:00 +27°C° 0 mm 1 mps 745 mmHg 52%
    18:00 +25°C° 0 mm 1 mps 745 mmHg 59%
    19:00 +23°C° 0 mm 1 mps 744 mmHg 66%
    20:00 +22°C° 0 mm 1 mps 745 mmHg 68%
    21:00 +22°C° 0 mm 1 mps 745 mmHg 71%
    22:00 +21°C° 0 mm 1 mps 745 mmHg 73%
    23:00 +21°C° 0 mm 1 mps 745 mmHg 76%

    Day after tomorrow, 17 September, Tuesday

    Time Temperature Precipitation Wind Pressure Humidity
    00:00 +20°C° 0 mm 1 mps 744 mmHg 79%
    01:00 +20°C° 0 mm 1 mps 744 mmHg 82%
    02:00 +19°C° 0 mm 1 mps 744 mmHg 83%
    03:00 +19°C° 0 mm 1 mps 744 mmHg 84%
    04:00 +19°C° 0 mm 1 mps 744 mmHg 85%
    05:00 +19°C° 0.1 mm 1 mps 744 mmHg 82%
    06:00 +20°C° 0.1 mm 1 mps 744 mmHg 80%
    07:00 +21°C° 0.1 mm 1 mps 744 mmHg 77%
    08:00 +22°C° 0.1 mm 1 mps 744 mmHg 71%
    09:00 +23°C° 0.1 mm 2 mps 745 mmHg 65%
    10:00 +25°C° 0.1 mm 2 mps 745 mmHg 58%
    11:00 +25°C° 0.4 mm 2 mps 745 mmHg 58%
    12:00 +25°C° 0.4 mm 3 mps 745 mmHg 57%
    13:00 +25°C° 0.4 mm 3 mps 744 mmHg 57%
    14:00 +24°C° 0.4 mm 3 mps 744 mmHg 60%
    15:00 +22°C° 0.4 mm 3 mps 744 mmHg 64%
    16:00 +20°C° 0.4 mm 3 mps 743 mmHg 67%
    17:00 +20°C° 0.1 mm 3 mps 743 mmHg 69%
    18:00 +19°C° 0.1 mm 2 mps 744 mmHg 71%
    19:00 +19°C° 0.1 mm 2 mps 744 mmHg 73%
    20:00 +18°C° 0 mm 2 mps 744 mmHg 74%
    21:00 +18°C° 0 mm 3 mps 745 mmHg 75%
    22:00 +18°C° 0 mm 3 mps 745 mmHg 75%
    23:00 +17°C° 0 mm 4 mps 745 mmHg 71%

    18 September, Wednesday

    Time Temperature Precipitation Wind Pressure Humidity
    00:00 +15°C° 0 mm 4 mps 745 mmHg 67%
    01:00 +14°C° 0 mm 5 mps 746 mmHg 63%
    02:00 +14°C° 0 mm 5 mps 746 mmHg 62%
    03:00 +13°C° 0 mm 5 mps 746 mmHg 61%
    04:00 +13°C° 0 mm 4 mps 747 mmHg 60%
    05:00 +12°C° 0 mm 5 mps 747 mmHg 61%
    06:00 +12°C° 0 mm 5 mps 748 mmHg 62%
    07:00 +12°C° 0 mm 5 mps 748 mmHg 64%
    08:00 +13°C° 0 mm 5 mps 749 mmHg 60%
    09:00 +14°C° 0 mm 5 mps 749 mmHg 56%
    10:00 +14°C° 0 mm 4 mps 750 mmHg 52%
    11:00 +15°C° 0 mm 4 mps 749 mmHg 53%
    12:00 +16°C° 0 mm 3 mps 749 mmHg 54%
    13:00 +16°C° 0 mm 3 mps 749 mmHg 54%
    14:00 +16°C° 0 mm 3 mps 749 mmHg 55%
    15:00 +16°C° 0 mm 2 mps 749 mmHg 56%
    16:00 +16°C° 0 mm 2 mps 749 mmHg 58%
    17:00 +14°C° 0 mm 2 mps 749 mmHg 64%
    18:00 +13°C° 0 mm 2 mps 749 mmHg 70%
    19:00 +12°C° 0 mm 2 mps 749 mmHg 76%
    20:00 +10°C° 0 mm 2 mps 750 mmHg 75%
    21:00 +10°C° 0 mm 2 mps 750 mmHg 75%
    22:00 +10°C° 0 mm 1 mps 750 mmHg 74%
    23:00 +10°C° 0 mm 1 mps 750 mmHg 71%

    19 September, Thursday

    Time Temperature Precipitation Wind Pressure Humidity
    00:00 +10°C° 0 mm 1 mps 750 mmHg 68%
    01:00 +10°C° 0 mm 1 mps 750 mmHg 65%
    02:00 +9°C° 0 mm 1 mps 750 mmHg 65%
    03:00 +8°C° 0 mm 2 mps 750 mmHg 66%
    04:00 +8°C° 0 mm 2 mps 750 mmHg 66%
    05:00 +8°C° 0 mm 2 mps 750 mmHg 64%
    06:00 +9°C° 0 mm 2 mps 751 mmHg 63%
    07:00 +9°C° 0 mm 2 mps 751 mmHg 62%
    08:00 +11°C° 0 mm 3 mps 751 mmHg 55%
    09:00 +13°C° 0 mm 4 mps 751 mmHg 49%
    10:00 +15°C° 0 mm 5 mps 751 mmHg 42%
    11:00 +16°C° 0 mm 5 mps 751 mmHg 40%
    12:00 +16°C° 0 mm 5 mps 751 mmHg 38%
    13:00 +17°C° 0 mm 5 mps 750 mmHg 36%
    14:00 +17°C° 0 mm 5 mps 750 mmHg 36%
    15:00 +16°C° 0 mm 5 mps 750 mmHg 36%
    16:00 +16°C° 0 mm 5 mps 750 mmHg 36%
    17:00 +15°C° 0 mm 4 mps 751 mmHg 41%
    18:00 +13°C° 0 mm 3 mps 751 mmHg 45%
    19:00 +12°C° 0 mm 3 mps 752 mmHg 49%
    20:00 +11°C° 0 mm 3 mps 752 mmHg 53%
    21:00 +10°C° 0 mm 3 mps 753 mmHg 58%
    22:00 +10°C° 0 mm 3 mps 753 mmHg 62%
    23:00 +9°C° 0 mm 3 mps 753 mmHg 64%

    20 September, Friday

    Time Temperature Precipitation Wind Pressure Humidity
    00:00 +8°C° 0 mm 3 mps 753 mmHg 66%
    01:00 +8°C° 0 mm 3 mps 753 mmHg 68%
    02:00 +8°C° 0 mm 3 mps 753 mmHg 69%
    03:00 +7°C° 0 mm 3 mps 753 mmHg 70%
    04:00 +7°C° 0 mm 3 mps 753 mmHg 71%
    05:00 +7°C° 0 mm 4 mps 754 mmHg 69%
    06:00 +8°C° 0 mm 4 mps 754 mmHg 66%
    07:00 +8°C° 0 mm 5 mps 754 mmHg 63%
    08:00 +10°C° 0 mm 5 mps 754 mmHg 56%
    09:00 +13°C° 0 mm 5 mps 755 mmHg 49%
    10:00 +15°C° 0 mm 6 mps 755 mmHg 42%
    11:00 +15°C° 0 mm 5 mps 754 mmHg 40%
    12:00 +16°C° 0 mm 5 mps 754 mmHg 37%
    13:00 +17°C° 0 mm 5 mps 754 mmHg 35%
    14:00 +18°C° 0 mm 4 mps 753 mmHg 35%
    15:00 +17°C° 0 mm 4 mps 753 mmHg 36%
    16:00 +17°C° 0 mm 4 mps 753 mmHg 36%
    17:00 +14°C° 0 mm 3 mps 753 mmHg 41%
    18:00 +14°C° 0 mm 2 mps 754 mmHg 46%
    19:00 +12°C° 0 mm 1 mps 754 mmHg 51%
    20:00 +11°C° 0 mm 1 mps 754 mmHg 53%
    21:00 +10°C° 0 mm 1 mps 755 mmHg 55%
    22:00 +9°C° 0 mm 1 mps 755 mmHg 58%
    23:00 +9°C° 0 mm 1 mps 755 mmHg 59%
    Show more